Weather History for KMSP - September, 2013

Change the Weather History Date:

Tuesday, September 3, 2013

  Actual Average Record
Temperature  
Mean Temperature 66 °F 67 °F  
Max Temperature 78 °F 77 °F 97 °F (1925)
Min Temperature 53 °F 58 °F 32 °F (1974)
Degree Days  
Heating Degree Days 0 2  
Month to date heating degree days 3 5  
Since 1 July heating degree days 11 24  
Cooling Degree Days 1 4  
Month to date cooling degree days 4 12  
Year to date cooling degree days 853 693  
Growing Degree Days 16 (Base 50)    
Moisture  
Dew Point 53 °F    
Average Humidity 68    
Maximum Humidity 93    
Minimum Humidity 43    
Precipitation  
Precipitation 0.00 in 0.11 in 1.08 in (1887)
Month to date precipitation 0.00 0.34  
Year to date precipitation 26.44 22.51  
Snow  
Snow 0.00 in 0.00 in 0.00 in ()
Month to date snowfall 0.0 0.0  
Since 1 July snowfall T 0.0  
Since 1 September snowfall 0.0 0.0  
Snow Depth 0.00 in    
Sea Level Pressure  
Sea Level Pressure 30.06 in    
Wind  
Wind Speed 3 mph (SW)    
Max Wind Speed 10 mph    
Max Gust Speed 13 mph    
Visibility 10 miles    
Events Fog    
T = Trace of Precipitation, MM = Missing Value Source: NWS Daily Summary

Daily Weather History Graph

Daily Weather History Graph

Search for Another Location

Airport or City:

Trip Planner

Search our weather history database for the weather conditions in past years. The results will help you decide how hot, cold, wet, or windy it might be!

Date:

Astronomy

Sep. 03, 2013 Rise Set
Actual Time 6:37 AM CDT 7:45 PM CDT
Civil Twilight 6:07 AM CDT 8:15 PM CDT
Nautical Twilight 5:31 AM CDT 8:51 PM CDT
Astronomical Twilight 4:53 AM CDT 9:29 PM CDT
Moon 4:50 AM CDT (9/3) 6:34 PM CDT (9/3)
Length of Visible Light 14h 08m
Length of Day
13h 07m
Waning Crescent, 3% of the Moon is Illuminated
Sep 3
Waning Crescent
Sep 5
New
Sep 12
First Quarter
Sep 19
Full
Sep 26
Last Quarter

Hourly Weather History & Observations

Time (CDT) Temp. Dew Point Humidity Pressure Visibility Wind Dir Wind Speed Gust Speed Precip Events Conditions
12:53 AM 57.9 °F 52.0 °F 81% 30.06 in 10.0 mi Calm Calm - N/A   Partly Cloudy
1:53 AM 55.9 °F 52.0 °F 87% 30.06 in 10.0 mi Calm Calm - N/A   Clear
2:53 AM 55.0 °F 51.1 °F 86% 30.07 in 10.0 mi Calm Calm - N/A   Clear
3:53 AM 54.0 °F 51.1 °F 90% 30.07 in 9.0 mi Calm Calm - N/A   Clear
4:39 AM 53.6 °F 51.8 °F 94% 30.06 in 10.0 mi Calm Calm - N/A   Partly Cloudy
4:53 AM 54.0 °F 51.1 °F 90% 30.07 in 10.0 mi Calm Calm - N/A Fog Patches of Fog
5:53 AM 53.1 °F 51.1 °F 93% 30.08 in 10.0 mi South 3.5 mph - N/A   Scattered Clouds
6:53 AM 53.1 °F 51.1 °F 93% 30.11 in 8.0 mi Calm Calm - N/A Fog Patches of Fog
7:53 AM 54.0 °F 51.1 °F 90% 30.11 in 10.0 mi SSW 3.5 mph - N/A Fog Patches of Fog
8:53 AM 57.9 °F 52.0 °F 81% 30.11 in 10.0 mi SW 8.1 mph - N/A   Partly Cloudy
9:53 AM 63.0 °F 53.1 °F 70% 30.11 in 10.0 mi WSW 6.9 mph - N/A   Scattered Clouds
10:53 AM 64.9 °F 53.1 °F 65% 30.10 in 10.0 mi SW 5.8 mph - N/A   Mostly Cloudy
11:53 AM 68.0 °F 52.0 °F 56% 30.09 in 10.0 mi Calm Calm - N/A   Mostly Cloudy
12:53 PM 70.0 °F 52.0 °F 53% 30.07 in 10.0 mi SSW 6.9 mph - N/A   Mostly Cloudy
1:53 PM 73.0 °F 51.1 °F 46% 30.05 in 10.0 mi Variable 3.5 mph - N/A   Mostly Cloudy
2:53 PM 73.0 °F 51.1 °F 46% 30.04 in 10.0 mi SSW 3.5 mph - N/A   Mostly Cloudy
3:53 PM 75.9 °F 52.0 °F 43% 30.02 in 10.0 mi SW 6.9 mph - N/A   Partly Cloudy
4:53 PM 77.0 °F 53.1 °F 43% 30.01 in 10.0 mi West 4.6 mph - N/A   Partly Cloudy
5:53 PM 75.9 °F 54.0 °F 46% 30.01 in 10.0 mi SW 6.9 mph - N/A   Mostly Cloudy
6:53 PM 75.9 °F 55.0 °F 48% 30.01 in 10.0 mi WSW 4.6 mph - N/A   Scattered Clouds
7:53 PM 75.0 °F 55.0 °F 50% 30.01 in 10.0 mi SSW 3.5 mph - N/A   Scattered Clouds
8:53 PM 72.0 °F 57.0 °F 59% 30.02 in 10.0 mi WSW 3.5 mph - N/A   Mostly Cloudy
9:53 PM 70.0 °F 57.9 °F 65% 30.01 in 10.0 mi SW 5.8 mph - N/A   Scattered Clouds
10:53 PM 68.0 °F 57.0 °F 68% 30.02 in 10.0 mi Calm Calm - N/A   Scattered Clouds
11:53 PM 66.9 °F 57.9 °F 73% 30.02 in 10.0 mi Calm Calm - N/A   Partly Cloudy